Previsão horária em Cerqueira César

Hoje, 31 Julho, Sábado

Tempo Temperatura Precipitação Vento Pressão Humidade
00:00 +3°C° 0 mm 5 m/s 705 mmHg 87%
01:00 +3°C° 0 mm 5 m/s 705 mmHg 87%
02:00 +3°C° 0 mm 5 m/s 705 mmHg 87%
03:00 +3°C° 0 mm 6 m/s 705 mmHg 87%
04:00 +3°C° 0 mm 6 m/s 705 mmHg 87%
05:00 +3°C° 0 mm 6 m/s 705 mmHg 88%
06:00 +3°C° 0 mm 6 m/s 705 mmHg 88%
07:00 +5°C° 0 mm 6 m/s 705 mmHg 81%
08:00 +7°C° 0 mm 6 m/s 706 mmHg 73%
09:00 +8°C° 0 mm 7 m/s 706 mmHg 66%
10:00 +11°C° 0 mm 6 m/s 706 mmHg 56%
11:00 +15°C° 0 mm 6 m/s 707 mmHg 47%
12:00 +17°C° 0 mm 5 m/s 707 mmHg 37%
13:00 +19°C° 0 mm 5 m/s 706 mmHg 35%
14:00 +20°C° 0 mm 5 m/s 705 mmHg 32%
15:00 +21°C° 0 mm 4 m/s 705 mmHg 30%
16:00 +19°C° 0 mm 4 m/s 705 mmHg 36%
17:00 +17°C° 0 mm 4 m/s 705 mmHg 41%
18:00 +14°C° 0 mm 3 m/s 705 mmHg 47%
19:00 +13°C° 0 mm 4 m/s 705 mmHg 56%
20:00 +12°C° 0 mm 5 m/s 705 mmHg 65%
21:00 +10°C° 0 mm 6 m/s 706 mmHg 74%
22:00 +9°C° 0 mm 6 m/s 706 mmHg 78%
23:00 +9°C° 0 mm 6 m/s 706 mmHg 83%

Amanhã, 1 Agosto, Domingo

Tempo Temperatura Precipitação Vento Pressão Humidade
00:00 +8°C° 0 mm 6 m/s 706 mmHg 88%
01:00 +8°C° 0 mm 5 m/s 705 mmHg 89%
02:00 +8°C° 0 mm 5 m/s 705 mmHg 90%
03:00 +8°C° 0 mm 4 m/s 704 mmHg 91%
04:00 +8°C° 0 mm 4 m/s 705 mmHg 92%
05:00 +8°C° 0 mm 4 m/s 705 mmHg 93%
06:00 +7°C° 0 mm 4 m/s 705 mmHg 95%
07:00 +10°C° 0 mm 4 m/s 706 mmHg 88%
08:00 +10°C° 0 mm 5 m/s 707 mmHg 81%
09:00 +13°C° 0 mm 5 m/s 707 mmHg 75%
10:00 +15°C° 0 mm 4 m/s 707 mmHg 64%
11:00 +18°C° 0 mm 4 m/s 707 mmHg 53%
12:00 +21°C° 0 mm 3 m/s 707 mmHg 43%
13:00 +23°C° 0 mm 2 m/s 707 mmHg 41%
14:00 +23°C° 0 mm 2 m/s 706 mmHg 39%
15:00 +24°C° 0 mm 1 m/s 705 mmHg 37%
16:00 +22°C° 0 mm 1 m/s 705 mmHg 42%
17:00 +20°C° 0 mm 2 m/s 705 mmHg 47%
18:00 +18°C° 0 mm 2 m/s 705 mmHg 52%
19:00 +17°C° 0 mm 3 m/s 705 mmHg 60%
20:00 +14°C° 0 mm 3 m/s 705 mmHg 68%
21:00 +13°C° 0 mm 4 m/s 705 mmHg 77%
22:00 +13°C° 0 mm 4 m/s 705 mmHg 79%
23:00 +13°C° 0 mm 4 m/s 705 mmHg 81%

Depois de amanhã, 2 Agosto, Segunda-feira

Tempo Temperatura Precipitação Vento Pressão Humidade
00:00 +13°C° 0 mm 3 m/s 705 mmHg 84%
01:00 +12°C° 0 mm 3 m/s 705 mmHg 85%
02:00 +12°C° 0 mm 3 m/s 704 mmHg 86%
03:00 +13°C° 0 mm 2 m/s 704 mmHg 88%
04:00 +13°C° 0 mm 2 m/s 704 mmHg 89%
05:00 +12°C° 0 mm 2 m/s 704 mmHg 90%
06:00 +12°C° 0 mm 2 m/s 704 mmHg 92%
07:00 +14°C° 0 mm 2 m/s 705 mmHg 83%
08:00 +15°C° 0 mm 2 m/s 705 mmHg 75%
09:00 +17°C° 0 mm 3 m/s 706 mmHg 67%
10:00 +18°C° 0 mm 2 m/s 706 mmHg 60%
11:00 +21°C° 0 mm 1 m/s 706 mmHg 52%
12:00 +23°C° 0 mm 1 m/s 706 mmHg 44%
13:00 +24°C° 0 mm 1 m/s 705 mmHg 42%
14:00 +25°C° 0 mm 1 m/s 705 mmHg 39%
15:00 +26°C° 0 mm 1 m/s 704 mmHg 36%
16:00 +24°C° 0 mm 1 m/s 704 mmHg 41%
17:00 +22°C° 0 mm 1 m/s 703 mmHg 45%
18:00 +21°C° 0 mm 1 m/s 703 mmHg 50%
19:00 +20°C° 0 mm 1 m/s 703 mmHg 53%
20:00 +19°C° 0 mm 1 m/s 703 mmHg 56%
21:00 +17°C° 0 mm 2 m/s 703 mmHg 60%
22:00 +16°C° 0 mm 2 m/s 703 mmHg 67%
23:00 +15°C° 0 mm 2 m/s 703 mmHg 75%

3 Agosto, Terça-feira

Tempo Temperatura Precipitação Vento Pressão Humidade
00:00 +13°C° 0 mm 3 m/s 703 mmHg 83%
01:00 +12°C° 0 mm 3 m/s 703 mmHg 87%
02:00 +12°C° 0 mm 3 m/s 703 mmHg 91%
03:00 +11°C° 0 mm 3 m/s 703 mmHg 95%
04:00 +11°C° 0 mm 3 m/s 703 mmHg 95%
05:00 +11°C° 0 mm 3 m/s 703 mmHg 94%
06:00 +11°C° 0 mm 3 m/s 703 mmHg 94%
07:00 +12°C° 0 mm 4 m/s 704 mmHg 87%
08:00 +14°C° 0 mm 4 m/s 704 mmHg 80%
09:00 +15°C° 0 mm 5 m/s 705 mmHg 72%
10:00 +18°C° 0 mm 4 m/s 705 mmHg 63%
11:00 +20°C° 0 mm 4 m/s 705 mmHg 55%
12:00 +22°C° 0 mm 4 m/s 705 mmHg 46%
13:00 +24°C° 0 mm 3 m/s 704 mmHg 42%
14:00 +24°C° 0 mm 3 m/s 704 mmHg 38%
15:00 +25°C° 0 mm 3 m/s 704 mmHg 34%
16:00 +22°C° 0 mm 3 m/s 703 mmHg 38%
17:00 +20°C° 0 mm 3 m/s 703 mmHg 43%
18:00 +18°C° 0 mm 2 m/s 703 mmHg 47%
19:00 +17°C° 0 mm 3 m/s 704 mmHg 57%
20:00 +14°C° 0 mm 4 m/s 704 mmHg 67%
21:00 +12°C° 0 mm 5 m/s 704 mmHg 76%
22:00 +12°C° 0 mm 5 m/s 705 mmHg 79%
23:00 +10°C° 0 mm 5 m/s 705 mmHg 82%

4 Agosto, Quarta-feira

Tempo Temperatura Precipitação Vento Pressão Humidade
00:00 +9°C° 0 mm 5 m/s 705 mmHg 85%
01:00 +8°C° 0 mm 5 m/s 705 mmHg 85%
02:00 +8°C° 0 mm 5 m/s 705 mmHg 85%
03:00 +7°C° 0 mm 5 m/s 704 mmHg 84%
04:00 +7°C° 0 mm 5 m/s 704 mmHg 86%
05:00 +7°C° 0 mm 5 m/s 704 mmHg 87%
06:00 +7°C° 0 mm 5 m/s 704 mmHg 88%
07:00 +8°C° 0 mm 6 m/s 705 mmHg 83%
08:00 +9°C° 0 mm 7 m/s 705 mmHg 78%
09:00 +11°C° 0 mm 7 m/s 706 mmHg 73%
10:00 +14°C° 0 mm 7 m/s 706 mmHg 63%
11:00 +16°C° 0 mm 7 m/s 706 mmHg 54%
12:00 +18°C° 0 mm 7 m/s 707 mmHg 45%
13:00 +18°C° 0 mm 7 m/s 706 mmHg 46%
14:00 +20°C° 0 mm 7 m/s 706 mmHg 46%
15:00 +20°C° 0 mm 8 m/s 705 mmHg 46%
16:00 +17°C° 0 mm 7 m/s 705 mmHg 54%
17:00 +15°C° 0 mm 7 m/s 705 mmHg 62%
18:00 +12°C° 0 mm 7 m/s 705 mmHg 69%
19:00 +13°C° 0 mm 6 m/s 706 mmHg 74%
20:00 +11°C° 0 mm 6 m/s 706 mmHg 78%
21:00 +10°C° 0 mm 6 m/s 706 mmHg 82%
22:00 +10°C° 0 mm 6 m/s 706 mmHg 81%
23:00 +10°C° 0 mm 7 m/s 706 mmHg 80%

5 Agosto, Quinta-feira

Tempo Temperatura Precipitação Vento Pressão Humidade
00:00 +10°C° 0 mm 7 m/s 706 mmHg 78%
01:00 +10°C° 0 mm 7 m/s 706 mmHg 81%
02:00 +10°C° 0 mm 7 m/s 705 mmHg 84%
03:00 +10°C° 0 mm 7 m/s 705 mmHg 88%
04:00 +10°C° 0 mm 7 m/s 705 mmHg 88%
05:00 +10°C° 0 mm 7 m/s 705 mmHg 88%
06:00 +10°C° 0 mm 7 m/s 705 mmHg 89%
07:00 +11°C° 0 mm 7 m/s 706 mmHg 81%
08:00 +14°C° 0 mm 7 m/s 706 mmHg 73%
09:00 +15°C° 0 mm 8 m/s 707 mmHg 65%
10:00 +17°C° 0 mm 7 m/s 707 mmHg 56%
11:00 +20°C° 0 mm 7 m/s 707 mmHg 47%
12:00 +23°C° 0 mm 7 m/s 708 mmHg 38%
13:00 +23°C° 0 mm 7 m/s 707 mmHg 35%
14:00 +24°C° 0 mm 7 m/s 706 mmHg 32%
15:00 +24°C° 0 mm 7 m/s 706 mmHg 30%
16:00 +22°C° 0 mm 7 m/s 706 mmHg 39%
17:00 +20°C° 0 mm 7 m/s 706 mmHg 48%
18:00 +18°C° 0 mm 7 m/s 706 mmHg 57%
19:00 +16°C° 0 mm 7 m/s 706 mmHg 66%
20:00 +15°C° 0 mm 6 m/s 707 mmHg 75%
21:00 +14°C° 0 mm 6 m/s 707 mmHg 84%
22:00 +14°C° 0 mm 6 m/s 707 mmHg 84%
23:00 +14°C° 0 mm 6 m/s 707 mmHg 85%
Mostrar mais

Necessitamos do seu Consentimento

A Meteoprog e os seus Fornecedores de Serviços podem armazenar e aceder a dados pessoais como cookies, identificadores do dispositivo ou outras tecnologias semelhantes existentes no seu dispositivo e processar estes dados para personalizar conteúdos e anúncios, assim como funcionalidades nas redes sociais e análise de tráfego.

  • Armazenar e/ou aceder a informações no seu dispositivo

    Os cookies, identificadores do dispositivo ou outras informações podem ser armazenados ou acedidos no seu dispositivo, para os fins acima indicados.

  • Anúncios e conteúdos personalizados, medição de anúncios e conteúdos, dados sobre o público-alvo e desenvolvimento de produtos

    Os anúncios e os conteúdos podem ser personalizados com base num perfil. Podem ser adicionados dados adicionais para uma maior personalização dos anúncios e dos conteúdos. A eficácia dos anúncios e dos conteúdos pode ser medida. Podem ser obtidas informações sobre o público que visualizou os anúncios e os conteúdos. Estes dados podem ser usados para desenvolver ou melhorar sistemas, softwares ou a experiência do utilizador.

Ao clicar em "Eu concordo”, permitirá o uso de cookies, identificadores do dispositivo e web beacons mencionados ou outras tecnologias semelhantes. As configurações do navegador do seu dispositivo podem ser alteradas.

Para certos fins, podem ser invocados interesses legítimos ao invés de consentimento. Pode ler mais informação sobre este assunto na nossa Política de Privacidade e Cookies.